Location: Westerlo
(51.0830°N, 4.9170°E)
Time: 21:17:55
(UTC+02:00)

ISS - Pass Details

Date: 24 April 2026
Orbit: 414 x 424 km, 51.6° (Epoch: 12 May)

Event Time Altitude Azimuth Distance (km) Brightness Sun altitude
Exits shadow 03:58:26 15° 132° (SE) 1,231 -1.5 -19.2°
Drops below altitude 10° 04:00:07 10° 103° (ESE) 1,501 -0.7 -19.1°
Sets 04:02:51 0° 79° (E) 2,372 0.8 -18.8°
